EZS45BE LSGG-LPPR

Flight info

Callsign EZS45BE
Flight time N/A
Altitude 31000
Route DEPUL1A/22 DEPUL T544 LSE DCT RUSIT DCT ESIDA DCT LERGA/N0444F390 DCT MINSO DCT NARAK DCT AGN DCT PIPOR DCT PPN DCT MIRPO DCT DGO DCT NEA DCT ZMR L155 ADORO DCT INKIT
Aircraft A20N/M-SDE2E3FGHIRWXY/LB1

Departure

Time 2026-05-04 18:03
Airport Geneva International Airport (LSGG)

Arrival

Time N/A
Airport Francisco de Sá Carneiro Airport (LPPR)
Time Latitude Longitude Altitude Speed Heading
2026-05-04 17:19 46.22943 6.10456 1404 ft 0 kts 135°
2026-05-04 17:50 46.22949 6.10448 1393 ft 4 kts 134°
2026-05-04 17:50 46.22961 6.10429 1400 ft 4 kts 126°
2026-05-04 17:50 46.22973 6.10396 1401 ft 4 kts 95°
2026-05-04 17:50 46.22970 6.10371 1404 ft 1 kts 45°
2026-05-04 17:56 46.22981 6.10387 1406 ft 6 kts 45°
2026-05-04 17:56 46.23000 6.10405 1399 ft 3 kts 19°
2026-05-04 17:57 46.23002 6.10407 1398 ft 1 kts 28°
2026-05-04 17:57 46.23020 6.10448 1393 ft 9 kts 44°
2026-05-04 17:57 46.23077 6.10477 1386 ft 9 kts 330°
2026-05-04 17:57 46.23137 6.10390 1393 ft 15 kts 315°
2026-05-04 17:58 46.23193 6.10346 1399 ft 6 kts 25°
2026-05-04 17:58 46.23237 6.10404 1393 ft 12 kts 45°
2026-05-04 17:58 46.23306 6.10507 1397 ft 17 kts 45°
2026-05-04 17:58 46.23401 6.10637 1395 ft 21 kts 36°
2026-05-04 17:59 46.23510 6.10794 1394 ft 24 kts 45°
2026-05-04 17:59 46.23631 6.10974 1398 ft 27 kts 47°
2026-05-04 17:59 46.23903 6.11372 1403 ft 30 kts 45°
2026-05-04 18:00 46.24058 6.11599 1399 ft 33 kts 45°
2026-05-04 18:00 46.24195 6.11802 1396 ft 28 kts 43°
2026-05-04 18:00 46.24337 6.12009 1402 ft 30 kts 46°
2026-05-04 18:00 46.24487 6.12227 1400 ft 32 kts 45°
2026-05-04 18:01 46.24647 6.12463 1399 ft 35 kts 45°
2026-05-04 18:01 46.24811 6.12672 1402 ft 25 kts 21°
2026-05-04 18:01 46.24940 6.12730 1399 ft 15 kts 14°
2026-05-04 18:02 46.24979 6.12615 1402 ft 10 kts 232°
2026-05-04 18:02 46.24915 6.12524 1395 ft 15 kts 225°
2026-05-04 18:02 46.24762 6.12299 1401 ft 67 kts 225°
2026-05-04 18:02 46.24231 6.11518 1396 ft 146 kts 225°
2026-05-04 18:03 46.23409 6.10329 1773 ft 173 kts 225°
2026-05-04 18:03 46.22543 6.09094 2642 ft 177 kts 224°
2026-05-04 18:03 46.21652 6.07868 3548 ft 181 kts 222°
2026-05-04 18:03 46.20709 6.06625 4384 ft 187 kts 219°
2026-05-04 18:04 46.19691 6.05364 5213 ft 201 kts 218°
2026-05-04 18:04 46.18644 6.03882 6092 ft 221 kts 226°
2026-05-04 18:04 46.16443 6.00202 7902 ft 262 kts 227°
2026-05-04 18:05 46.15196 5.98247 8568 ft 268 kts 226°
2026-05-04 18:05 46.13895 5.96293 8880 ft 270 kts 225°
2026-05-04 18:05 46.12581 5.94354 9060 ft 269 kts 225°
2026-05-04 18:05 46.11259 5.92410 9343 ft 276 kts 225°
2026-05-04 18:06 46.08516 5.88366 11267 ft 298 kts 226°
2026-05-04 18:06 46.07009 5.86137 11909 ft 321 kts 226°
2026-05-04 18:06 46.05425 5.83793 12871 ft 330 kts 226°
2026-05-04 18:07 46.03842 5.81426 14065 ft 334 kts 229°
2026-05-04 18:07 46.02646 5.78553 15112 ft 339 kts 249°
2026-05-04 18:07 46.02109 5.75204 15989 ft 350 kts 257°
2026-05-04 18:07 46.01566 5.71757 16944 ft 354 kts 251°
2026-05-04 18:08 46.00699 5.68441 17970 ft 356 kts 243°
2026-05-04 18:08 45.99545 5.65271 18869 ft 359 kts 237°
2026-05-04 18:08 45.98218 5.62209 19747 ft 362 kts 234°
2026-05-04 18:08 45.96804 5.59176 20625 ft 366 kts 234°
2026-05-04 18:09 45.94008 5.52944 22328 ft 375 kts 235°
2026-05-04 18:09 45.91192 5.46499 23905 ft 385 kts 234°
2026-05-04 18:10 45.89756 5.43234 24632 ft 388 kts 234°
2026-05-04 18:10 45.88312 5.39957 25368 ft 389 kts 234°
2026-05-04 18:10 45.86854 5.36662 26035 ft 393 kts 234°
2026-05-04 18:10 45.85378 5.33335 26714 ft 396 kts 234°
2026-05-04 18:11 45.83896 5.30000 27413 ft 397 kts 235°
2026-05-04 18:11 45.82407 5.26653 28089 ft 399 kts 235°
2026-05-04 18:11 45.80906 5.23283 28689 ft 402 kts 235°
2026-05-04 18:11 45.79413 5.19932 29282 ft 405 kts 235°
2026-05-04 18:12 45.77891 5.16523 29860 ft 407 kts 235°
2026-05-04 18:12 45.76357 5.13088 30388 ft 410 kts 235°
2026-05-04 18:12 45.74813 5.09636 30831 ft 413 kts 235°
2026-05-04 18:12 45.73376 5.06057 30960 ft 416 kts 238°
2026-05-04 18:13 45.70588 4.98820 30993 ft 414 kts 238°
2026-05-04 18:14 45.66396 4.87991 31017 ft 413 kts 239°
2026-05-04 18:14 45.63786 4.80670 31010 ft 414 kts 240°
2026-05-04 18:15 45.58650 4.66024 30980 ft 413 kts 240°
2026-05-04 18:16 45.56045 4.58707 30969 ft 413 kts 240°
2026-05-04 18:16 45.53429 4.51386 30958 ft 414 kts 240°
2026-05-04 18:17 45.49498 4.40420 30960 ft 414 kts 240°
2026-05-04 18:18 45.45566 4.29490 30977 ft 413 kts 240°
2026-05-04 18:18 45.42956 4.22259 30953 ft 414 kts 239°
2026-05-04 18:19 45.38993 4.11321 30962 ft 414 kts 239°
2026-05-04 18:19 45.36343 4.04030 30969 ft 415 kts 239°
2026-05-04 18:20 45.33687 3.96742 30977 ft 415 kts 239°
2026-05-04 18:20 45.31023 3.89452 30967 ft 414 kts 239°
2026-05-04 18:21 45.28369 3.82210 30973 ft 417 kts 239°
2026-05-04 18:21 45.25642 3.74963 30966 ft 414 kts 236°
2026-05-04 18:22 45.22390 3.68229 30967 ft 413 kts 232°
2026-05-04 18:22 45.19113 3.61584 30967 ft 413 kts 232°
2026-05-04 18:23 45.15813 3.54899 30963 ft 413 kts 232°
2026-05-04 18:23 45.12518 3.48239 30960 ft 412 kts 232°
2026-05-04 18:24 45.09229 3.41609 30954 ft 410 kts 232°
2026-05-04 18:24 45.05939 3.34996 30947 ft 411 kts 232°
2026-05-04 18:25 45.02653 3.28403 30958 ft 409 kts 232°
2026-05-04 18:25 44.99376 3.21846 30953 ft 411 kts 232°
2026-05-04 18:26 44.96077 3.15257 30951 ft 411 kts 232°
2026-05-04 18:26 44.92774 3.08675 30952 ft 410 kts 232°
2026-05-04 18:27 44.89453 3.02076 30952 ft 417 kts 232°
2026-05-04 18:27 44.86093 2.95412 30949 ft 416 kts 232°
2026-05-04 18:28 44.82805 2.88701 30947 ft 417 kts 234°
2026-05-04 18:28 44.79683 2.81804 30946 ft 417 kts 234°
2026-05-04 18:29 44.76544 2.74925 30942 ft 417 kts 234°
2026-05-04 18:29 44.73404 2.68122 30940 ft 417 kts 234°
2026-05-04 18:30 44.70185 2.61189 30940 ft 428 kts 234°
2026-05-04 18:30 44.68565 2.57699 30944 ft 425 kts 234°
2026-05-04 18:31 44.65327 2.50735 30937 ft 426 kts 234°
2026-05-04 18:31 44.62075 2.43765 30938 ft 427 kts 234°
2026-05-04 18:32 44.58819 2.36799 30926 ft 426 kts 233°
2026-05-04 18:32 44.55583 2.29890 30922 ft 422 kts 233°
2026-05-04 18:33 44.52290 2.22892 30935 ft 433 kts 233°
2026-05-04 18:33 44.48999 2.15901 30936 ft 432 kts 233°
2026-05-04 18:34 44.45682 2.08872 30937 ft 432 kts 233°
2026-05-04 18:34 44.42364 2.01860 30937 ft 432 kts 233°
2026-05-04 18:35 44.39047 1.94864 30934 ft 430 kts 233°
2026-05-04 18:35 44.35737 1.87902 30922 ft 429 kts 232°
2026-05-04 18:36 44.32430 1.80966 30917 ft 428 kts 232°
2026-05-04 18:36 44.29684 1.75218 30923 ft 429 kts 232°
2026-05-04 18:37 44.25896 1.67047 30940 ft 431 kts 233°
2026-05-04 18:37 44.23217 1.61169 30938 ft 431 kts 233°
2026-05-04 18:38 44.19988 1.54134 30931 ft 429 kts 233°
2026-05-04 18:38 44.16771 1.47154 30940 ft 428 kts 232°
2026-05-04 18:39 44.13545 1.40187 30939 ft 428 kts 232°
2026-05-04 18:39 44.10310 1.33217 30947 ft 429 kts 232°
2026-05-04 18:40 44.07068 1.26247 31013 ft 431 kts 232°
2026-05-04 18:40 44.05433 1.22745 31630 ft 428 kts 232°
2026-05-04 18:40 44.03821 1.19289 31949 ft 422 kts 232°
2026-05-04 18:41 44.00639 1.12477 31945 ft 419 kts 233°
2026-05-04 18:41 43.97455 1.05678 31938 ft 420 kts 233°
2026-05-04 18:42 43.94264 0.98879 31939 ft 420 kts 233°
2026-05-04 18:42 43.91072 0.92096 31942 ft 420 kts 233°
2026-05-04 18:43 43.87887 0.85307 31950 ft 421 kts 234°
2026-05-04 18:43 43.84895 0.78329 31949 ft 421 kts 236°
2026-05-04 18:44 43.81927 0.71327 31959 ft 421 kts 236°
2026-05-04 18:44 43.78951 0.64405 31953 ft 421 kts 235°
2026-05-04 18:45 43.75949 0.57464 31961 ft 420 kts 235°
2026-05-04 18:45 43.72941 0.50531 31960 ft 420 kts 235°
2026-05-04 18:46 43.69933 0.43614 31963 ft 419 kts 235°
2026-05-04 18:46 43.66927 0.36716 31973 ft 420 kts 235°
2026-05-04 18:47 43.63908 0.29805 31970 ft 419 kts 235°
2026-05-04 18:47 43.60890 0.22917 31970 ft 419 kts 235°
2026-05-04 18:48 43.57890 0.16081 31976 ft 419 kts 235°
2026-05-04 18:48 43.54864 0.09204 32090 ft 422 kts 235°
2026-05-04 18:48 43.53338 0.05751 32635 ft 421 kts 235°
2026-05-04 18:49 43.51819 0.02308 32922 ft 417 kts 236°
2026-05-04 18:49 43.50315 -0.01097 33025 ft 417 kts 236°
2026-05-04 18:49 43.48798 -0.04527 32997 ft 418 kts 236°
2026-05-04 18:50 43.45790 -0.11318 32997 ft 417 kts 236°
2026-05-04 18:50 43.42763 -0.18133 32975 ft 417 kts 236°
2026-05-04 18:51 43.39729 -0.24945 32998 ft 417 kts 236°
2026-05-04 18:51 43.36695 -0.31746 32991 ft 417 kts 236°
2026-05-04 18:52 43.33658 -0.38538 32998 ft 417 kts 236°
2026-05-04 18:52 43.30617 -0.45322 32988 ft 417 kts 236°
2026-05-04 18:53 43.27572 -0.52098 32995 ft 417 kts 236°
2026-05-04 18:53 43.24540 -0.58832 32992 ft 417 kts 236°
2026-05-04 18:54 43.21484 -0.65597 32994 ft 417 kts 236°
2026-05-04 18:54 43.18432 -0.72344 32996 ft 416 kts 236°
2026-05-04 18:55 43.15392 -0.79047 33014 ft 417 kts 237°
2026-05-04 18:55 43.10795 -0.89158 33011 ft 417 kts 237°
2026-05-04 18:56 43.07722 -0.95897 33011 ft 417 kts 236°
2026-05-04 18:56 43.04653 -1.02613 33010 ft 416 kts 236°
2026-05-04 18:57 43.01581 -1.09320 33000 ft 416 kts 237°
2026-05-04 18:57 42.98508 -1.16009 33028 ft 415 kts 237°
2026-05-04 18:58 42.95449 -1.22654 33015 ft 413 kts 237°
2026-05-04 18:58 42.92408 -1.29248 33010 ft 413 kts 237°
2026-05-04 18:59 42.89348 -1.35866 33013 ft 413 kts 237°
2026-05-04 18:59 42.86279 -1.42490 33005 ft 413 kts 237°
2026-05-04 19:00 42.83202 -1.49116 33006 ft 414 kts 237°
2026-05-04 19:00 42.80110 -1.55757 33016 ft 415 kts 237°
2026-05-04 19:01 42.77033 -1.62355 32994 ft 414 kts 237°
2026-05-04 19:01 42.74064 -1.69050 32993 ft 414 kts 242°
2026-05-04 19:02 42.71965 -1.76354 32994 ft 415 kts 251°
2026-05-04 19:02 42.70295 -1.83872 32999 ft 416 kts 251°
2026-05-04 19:03 42.68601 -1.91389 33033 ft 416 kts 251°
2026-05-04 19:03 42.66897 -1.98907 33012 ft 416 kts 251°
2026-05-04 19:04 42.66042 -2.02668 33130 ft 418 kts 251°
2026-05-04 19:04 42.65181 -2.06451 33641 ft 419 kts 251°
2026-05-04 19:04 42.64319 -2.10235 34227 ft 418 kts 251°
2026-05-04 19:04 42.63459 -2.14003 34470 ft 417 kts 251°
2026-05-04 19:05 42.62609 -2.17696 34362 ft 412 kts 250°
2026-05-04 19:05 42.61727 -2.21379 33866 ft 409 kts 250°
2026-05-04 19:05 42.60846 -2.24981 33246 ft 407 kts 250°
2026-05-04 19:05 42.59950 -2.28635 33045 ft 412 kts 250°
2026-05-04 19:06 42.58210 -2.35749 33011 ft 414 kts 250°
2026-05-04 19:06 42.56398 -2.43176 33012 ft 415 kts 250°